Home   Weather   Grevenbroich   Past weeks

Flag for Germany Past Weather in Grevenbroich, North Rhine-Westphalia, Germany — Yesterday and Last 2 Weeks

Now
52 °F

Scattered showers. Passing clouds.


Feels Like: 50 °F
Forecast: 35 / 53 °F
Wind: 6 mph from West

Location: Monchengladbach Airport

Current Time: Apr 27, 2017 at 4:59:29 pm

Latest Report: Apr 27, 2017 at 4:20 pm


Visibility: N/A

Pressure: 30.01 "Hg

Humidity: 41%

Dew Point: 28 °F

Location of GrevenbroichLocation

Past Weather in Grevenbroich — Graph

°F

Grevenbroich Temperature Yesterday

Maximum temperature yesterday: 52 °F (at 3:50 pm)
Minimum temperature yesterday: 41 °F (at 9:50 am)
Average temperature yesterday: 48 °F

High & Low Weather Summary for the Past Weeks

 TemperatureHumidityPressure
High59 °F (Apr 21, 2:50 pm)100% (Apr 17, 7:50 am)30.63 "Hg (Apr 17, 7:50 am)
Low30 °F (Apr 20, 7:50 am)30% (Apr 20, 6:20 pm)29.74 "Hg (Apr 25, 8:20 am)
Average49 °F58%30.15 "Hg
* Reported Apr 12 3:20 pm — Apr 27 3:50 pm, Grevenbroich, Weather by CustomWeather, © 2017

Note: Actual official high and low records may vary slightly from our data, if they occured in-between our weather recording intervals... More about our weather records

Advertising

Grevenbroich Weather History for the Previous 24 Hours

Scroll right to see more
 ConditionsComfort  
Time TempWeatherWind HumidityBarometerVisibility
3:50 pm
Thu, Apr 27
52 °FPassing clouds.7 mph44%30.01 "HgN/A
3:20 pm52 °FScattered showers. Passing clouds.3 mph41%30.01 "HgN/A
2:50 pm50 °FScattered showers. Passing clouds.8 mph43%30.01 "HgN/A
2:20 pm50 °FPassing clouds.9 mph43%30.01 "HgN/A
1:50 pm52 °FClear.6 mph47%30.01 "Hg10 mi
1:20 pm48 °FPassing clouds.8 mph46%30.01 "HgN/A
12:50 pm50 °FPassing clouds.6 mph40%30.01 "HgN/A
12:20 pm46 °FPassing clouds.10 mph50%30.04 "HgN/A
11:50 am48 °FScattered clouds.5 mph50%30.04 "HgN/A
11:20 am48 °FScattered clouds.5 mph54%30.04 "HgN/A
10:50 am46 °FScattered clouds.6 mph62%30.04 "HgN/A
10:20 am45 °FScattered clouds.3 mph66%30.04 "HgN/A
9:50 am45 °FSunny.6 mph66%30.04 "Hg10 mi
9:20 am43 °FSunny.2 mph76%30.04 "Hg10 mi
8:20 pm
Wed, Apr 26
46 °FScattered showers. Passing clouds.8 mph50%29.92 "HgN/A
7:50 pm48 °FScattered showers. Passing clouds.7 mph46%29.92 "HgN/A
7:20 pm50 °FScattered showers. Passing clouds.6 mph43%29.92 "HgN/A
6:50 pm50 °FPassing clouds.8 mph47%29.92 "HgN/A
6:20 pm50 °FClear.3 mph47%29.89 "Hg10 mi
5:50 pm50 °FPassing clouds.6 mph47%29.89 "HgN/A
5:20 pm52 °FScattered showers. Passing clouds.7 mph44%29.89 "HgN/A
4:50 pm50 °FScattered showers. Passing clouds.5 mph43%29.89 "HgN/A
4:20 pm50 °FScattered showers. Passing clouds.7 mph47%29.89 "HgN/A
Weather by CustomWeather, © 2017

See weather overviewHow to use our weather pages